User: anonymous   Login
Location: Unspecified
(0.0000°N, 0.0000°E)
Time: 12:37:45
(UTC+00:00)
Language:

COSMOS 2471 (GLONASS) - Orbit

View from above orbital plane
View from above orbital plane
View from above satellite
View from above satellite

Ground track
Ground track

The orbit data is extracted from the following two-line orbital elements,

1 37372U 11009A   17087.70642453 +.00000016 +00000-0 +00000-0 0  9994
2 37372 065.3628 067.3556 0008978 246.3883 205.9767 02.13107775047338
Epoch (UTC): 28 March 2017 16:57:15
Eccentricity: 0.0008978
inclination: 65.3628°
perigee height: 19106 km
apogee height: 19152 km
right ascension of ascending node: 67.3556°
argument of perigee: 246.3883°
revolutions per day: 2.13107775
mean anomaly at epoch: 205.9767°
orbit number at epoch: 4733

The dashed part of the orbit path shows where the satellite is in the earth's shadow,  

DLR